Overview Statistics Trail Chart Weather Telemetry Raw packets
 

This is the latest recevied weather packets stored in our database for station/object VE3EP-1. If no packets are shown the sender has not sent any weather packets the latest 10 day(s).

<< 16 17 18 19 20 21 22 >>
Time Temp. Humidity Pressure Rain* Wind** Luminosity Snow
1788197647 21.11° C 84% 1020.9 hPa 0 mm - - -
1788197047 21.11° C 82% 1021.1 hPa 0 mm - - -
1788196448 21.67° C 82% 1021.2 hPa 0 mm - - -
1788195847 21.67° C 82% 1021.3 hPa 0 mm - - -
1788195247 21.67° C 82% 1021.3 hPa 0 mm - - -
1788194647 21.11° C 83% 1021.6 hPa 0 mm - - -
1788192847 21.11° C 86% 1021.7 hPa 0 mm - - -
1788192247 21.11° C 85% 1021.8 hPa 0 mm - - -
1788191647 21.11° C 86% 1021.8 hPa 0 mm - - -
1788189847 20.56° C 89% 1021.8 hPa 0 mm - - -
1788189247 20.56° C 90% 1021.8 hPa 0 mm - - -
1788188647 20.56° C 89% 1021.8 hPa 0 mm - - -
1788188048 20.56° C 88% 1021.8 hPa 0 mm - - -
1788184447 20.56° C 89% 1021.7 hPa 0 mm - - -
1788183846 20.56° C 88% 1021.8 hPa 0 mm - - -
1788183247 21.11° C 88% 1021.6 hPa 0 mm - - -
1788182647 20.56° C 88% 1021.7 hPa 0 mm - - -
1788181448 20.56° C 91% 1021.6 hPa 0 mm - - -
1788180248 20° C 95% 1021.8 hPa 0 mm - - -
1788179648 19.44° C 96% 1021.6 hPa 0 mm - - -
1788179048 18.89° C 97% 1021.6 hPa 0 mm - - -
1788178447 18.89° C 97% 1021.8 hPa 0 mm - - -
1788177247 18.33° C 97% 1022 hPa 0 mm - - -
1788176647 18.33° C 97% 1021.8 hPa 0 mm - - -
1788176048 18.33° C 97% 1021.8 hPa 0 mm - - -

* Rain latest hour (hover to see other rain measurements)
** Current wind speed in m/s (hover to see current wind gust speed)